WS Maaseik 1 Meer informatie WS Maaseik 1


WS Maaseik 2 Meer informatie WS Maaseik 2


Regen radar Meer informatie rain snow radar


Bezoek onze andere website:

Vorige versie
weerstation Maaseik


Bezoek ook eens deze sites:

Weerstation Geleen



Het weer levert geen direct gevaar op.    Er zijn geen waarschuwingen afgegeven.

15 daagse weersverwachting Geel (BE)

  • Overzicht
  • Per uur
  • 15 dagen
  • Extra
  • Vergelijk
  • Kaarten
  • Dagkaart
  • Meer »
  • Info
  • Statistieken
  • Directe link
    Temp 6h Neerslag Wind  
 06:14     21:19    Daglengte: 15:05 Vandaag
20:00
21°
0.8 mm
2
 06:15     21:17    Daglengte: 15:02 Morgen
02:00
17°
 
4
08:00
16°
3.6 mm
4
14:00
19°
4.3 mm
7
20:00
19°
 
5
 06:17     21:16    Daglengte: 14:59 Zaterdag 07 Aug
02:00
15°
1.1 mm
3
08:00
15°
 
2
14:00
21°
1.6 mm
5
20:00
18°
7.8 mm
3
warningclass
 06:18     21:14    Daglengte: 14:56 Zondag 08 Aug
02:00
15°
6.6 mm
5
08:00
15°
12.6 mm
7
Locatie info
Region: Vlaanderen
Latitude: 51.1607°N
Longitude: 4.9927°E
22 masl
Postcode: 2440
Temp/Neerslag /Baro Onweer/Dauwpunt
    Temp Baro 1h Neerslag Dauwpunt Wind UV Bewolking  
 06:14     21:19    Daglengte: 15:05 Vandaag
15:00
22°
1007.7 hPa
45%
12.5°
2
Windvlaag: 3 m/s
74%
16:00
21°
1007.2 hPa 0.8 mm
62%
11.5°
3
Windvlaag: 4.9 m/s
76%
17:00
21°
1006.4 hPa
57%
12.0°
2
Windvlaag: 4 m/s
46%
18:00
22°
1006.0 hPa
11%
12.4°
2
Windvlaag: 4.1 m/s
18%
19:00
22°
1005.5 hPa
19%
12.0°
3
Windvlaag: 4 m/s
17%
20:00
21°
1005.3 hPa
63%
12.8°
2
Windvlaag: 4.1 m/s
9%
21:00
19°
1005.0 hPa
15%
14.4°
2
Windvlaag: 3.3 m/s
26%
22:00
18°
1004.8 hPa
15%
14.3°
3
Windvlaag: 4.2 m/s
35%
23:00
18°
1004.4 hPa
13%
14.0°
3
Windvlaag: 5.1 m/s
66%
 06:15     21:17    Daglengte: 15:02 Morgen
00:00
18°
1004.0 hPa
66%
13.9°
4
Windvlaag: 7.2 m/s
76%
01:00
18°
1003.3 hPa
65%
14.4°
4
Windvlaag: 8.2 m/s
41%
02:00
17°
1002.6 hPa
18%
14.6°
4
Windvlaag: 7.8 m/s
78%
03:00
17°
1002.1 hPa 1.1 mm
82%
14.4°
4
Windvlaag: 8.9 m/s
86%
04:00
16°
1001.7 hPa 1.6 mm
82%
14.6°
4
Windvlaag: 8.6 m/s
80% warningclass
05:00
16°
1001.0 hPa
72%
14.9°
4
Windvlaag: 8 m/s
60%
06:00
16°
1001.0 hPa
79%
15.1°
4
Windvlaag: 6.8 m/s
62%
07:00
16°
1001.2 hPa 0.9 mm
82%
15.2°
4
Windvlaag: 7.4 m/s
77%
08:00
16°
1001.6 hPa
68%
15.0°
4
Windvlaag: 7.7 m/s
74%
09:00
17°
1001.8 hPa 0.7 mm
72%
15.3°
5
Windvlaag: 7.9 m/s
35%
10:00
17°
1002.1 hPa 0.9 mm
72%
15.0°
6
Windvlaag: 8.2 m/s
34%
11:00
18°
1002.3 hPa
82%
15.2°
6
Windvlaag: 8.3 m/s
54%
12:00
18°
1002.5 hPa 0.8 mm
82%
15.1°
7
Windvlaag: 9.4 m/s
19%
13:00
18°
1002.8 hPa 1.3 mm
82%
15.4°
7
Windvlaag: 9.9 m/s
19%
14:00
19°
1002.8 hPa 0.7 mm
78%
15.4°
7
Windvlaag: 9.8 m/s
13%
15:00
19°
1003.0 hPa
74%
15.8°
8
Windvlaag: 10.4 m/s
17%
16:00
19°
1003.3 hPa
23%
14.1°
7
Windvlaag: 10.1 m/s
14%
17:00
20°
1003.6 hPa
16%
13.0°
7
Windvlaag: 7.9 m/s
10%
18:00
20°
1003.7 hPa
14%
12.5°
7
Windvlaag: 7.8 m/s
13%
19:00
20°
1004.0 hPa
14%
12.6°
6
Windvlaag: 7.1 m/s
7%
20:00
19°
1004.2 hPa
14%
12.0°
5
Windvlaag: 6.6 m/s
5%
21:00
18°
1004.6 hPa
50%
11.6°
4
Windvlaag: 6.3 m/s
2%
22:00
17°
1005.0 hPa
14%
11.4°
4
Windvlaag: 6.1 m/s
1%
23:00
16°
1005.3 hPa
14%
11.1°
3
Windvlaag: 6.3 m/s
5%
 06:17     21:16    Daglengte: 14:59 Zaterdag 07 Aug
00:00
16°
1005.4 hPa
67%
11.7°
4
Windvlaag: 6.9 m/s
67%
01:00
16°
1005.4 hPa 1.1 mm
82%
12.2°
4
Windvlaag: 7 m/s
56%
02:00
15°
1005.3 hPa
72%
12.6°
3
Windvlaag: 6.8 m/s
27%
03:00
15°
1004.8 hPa
64%
13.1°
3
Windvlaag: 7.5 m/s
30%
04:00
15°
1004.8 hPa
50%
12.8°
3
Windvlaag: 7.7 m/s
53%
05:00
14°
1004.4 hPa
14%
12.5°
3
Windvlaag: 7.4 m/s
38%
06:00
14°
1004.2 hPa
14%
12.4°
3
Windvlaag: 5.5 m/s
16%
07:00
14°
1004.2 hPa
14%
12.7°
2
Windvlaag: 5 m/s
17%
08:00
15°
1004.1 hPa
14%
13.1°
2
Windvlaag: 3.2 m/s
40%
09:00
16°
1004.1 hPa
28%
13.4°
2
Windvlaag: 3.4 m/s
36%
10:00
17°
1003.8 hPa
14%
14.7°
3
Windvlaag: 6.6 m/s
11%
11:00
19°
1003.3 hPa
28%
10.2°
4
Windvlaag: 6.7 m/s
28%
12:00
20°
1002.9 hPa
27%
10.2°
4
Windvlaag: 6.3 m/s
24%
13:00
21°
1002.2 hPa
22%
10.2°
4
Windvlaag: 6.4 m/s
42%
14:00
21°
1001.8 hPa 1.6 mm
81%
10.9°
5
Windvlaag: 7.6 m/s
42%
15:00
21°
1001.4 hPa 1.7 mm
99%
11.6°
4
Windvlaag: 7.5 m/s
71%
16:00
21°
1001.3 hPa 1.7 mm
100%
10.2°
4
Windvlaag: 8.7 m/s
49%
17:00
21°
1000.9 hPa
60%
9.9°
4
Windvlaag: 7.7 m/s
66%
18:00
20°
1000.9 hPa 1.2 mm
100%
10.5°
4
Windvlaag: 8.5 m/s
78%
19:00
19°
1001.0 hPa 1.6 mm
100%
9.3°
4
Windvlaag: 8 m/s
67%
20:00
18°
1001.1 hPa 1.7 mm
100%
9.7°
3
Windvlaag: 6.2 m/s
56% warningclass
21:00
17°
1001.0 hPa 1.5 mm
90%
9.2°
3
Windvlaag: 6.3 m/s
65%
22:00
17°
1001.4 hPa 1.3 mm
90%
11.0°
4
Windvlaag: 7.6 m/s
57%
23:00
17°
1001.8 hPa 1.9 mm
76%
12.3°
4
Windvlaag: 6.9 m/s
54%
 06:18     21:14    Daglengte: 14:56 Zondag 08 Aug
00:00
16°
1002.0 hPa
22%
11.6°
4
Windvlaag: 7.5 m/s
50%
01:00
16°
1002.4 hPa 2.0 mm
25%
12.1°
5
Windvlaag: 9.1 m/s
49%
02:00
15°
1002.5 hPa
28%
12.1°
5
Windvlaag: 9 m/s
94%
03:00
15°
1002.3 hPa 2.1 mm
100%
12.5°
5
Windvlaag: 8.7 m/s
81%
04:00
15°
1002.4 hPa 2.3 mm
100%
12.4°
7
Windvlaag: 9 m/s
96%
05:00
15°
1002.6 hPa 2.4 mm
100%
13.0°
7
Windvlaag: 9 m/s
94%
06:00
14°
1003.0 hPa
50%
13.3°
7
Windvlaag: 9 m/s
85%
07:00
15°
1003.6 hPa
22%
13.4°
7
Windvlaag: 9.2 m/s
84%
08:00
15°
1004.5 hPa
22%
14.0°
7
Windvlaag: 10.4 m/s
65%
09:00
16°
1005.5 hPa
14%
-36.0°
7
Windvlaag: 0 m/s
59%
Temp/Neerslag /Baro Onweer/Dauwpunt
    Temp Baro Neerslag Dauwpunt Wind Bewolking  
 06:14     21:19    Daglengte: 15:05 Vandaag
17:00
21°
1006.4 hPa 0.8 mm 12.0°
2
46%
20:00
21°
1005.3 hPa   12.8°
2
9%
23:00
18°
1004.4 hPa   14.0°
3
66%
 06:15     21:17    Daglengte: 15:02 Morgen
02:00
17°
1002.6 hPa   14.6°
4
78%
05:00
16°
1001.0 hPa 2.7 mm 14.9°
4
60%
08:00
16°
1001.6 hPa 0.9 mm 15.0°
4
74%
11:00
18°
1002.3 hPa 1.6 mm 15.2°
6
54%
14:00
19°
1002.8 hPa 2.7 mm 15.4°
7
13%
17:00
20°
1003.6 hPa   13.0°
7
10%
20:00
19°
1004.2 hPa   12.0°
5
5%
23:00
16°
1005.3 hPa   11.1°
3
5%
 06:17     21:16    Daglengte: 14:59 Zaterdag 07 Aug
02:00
15°
1005.3 hPa 1.1 mm 12.6°
3
27%
05:00
14°
1004.4 hPa   12.5°
3
38%
08:00
15°
1004.1 hPa   13.1°
2
40%
11:00
19°
1003.3 hPa   10.2°
4
28%
14:00
21°
1001.8 hPa 1.6 mm 10.9°
5
42%
17:00
21°
1000.9 hPa 3.3 mm 9.9°
4
66%
20:00
18°
1001.1 hPa 4.5 mm 9.7°
3
56% warningclass
23:00
17°
1001.8 hPa 4.6 mm 12.3°
4
54%
 06:18     21:14    Daglengte: 14:56 Zondag 08 Aug
02:00
15°
1002.5 hPa 2.0 mm 12.1°
5
94%
05:00
15°
1002.6 hPa 6.8 mm 13.0°
7
94%
08:00
15°
1004.5 hPa   14.0°
7
65%
11:00
17°
1006.9 hPa   14.9°
8
24%
14:00
19°
1008.2 hPa 2.6 mm 13.3°
8
61%
17:00
21°
1010.5 hPa 12.8 mm 10.7°
8
1%
20:00
18°
1012.3 hPa 12.8 mm 11.3°
6
0%
23:00
15°
1013.9 hPa 12.8 mm 10.0°
4
0%
 06:20     21:12    Daglengte: 14:52 Maandag 09 Aug
02:00
13°
1014.4 hPa 12.8 mm 10.8°
4
0%
05:00
14°
1014.0 hPa 13.0 mm 11.2°
4
1%
08:00
14°
1014.5 hPa 13.9 mm 12.6°
6
1%
11:00
17°
1016.0 hPa 14.7 mm 13.8°
7
1%
14:00
18°
1017.2 hPa 15.9 mm 14.9°
6
1%
17:00
20°
1017.6 hPa 16.6 mm 13.6°
6
1%
20:00
18°
1018.4 hPa 17.6 mm 14.0°
4
1%
23:00
14°
1019.8 hPa 17.7 mm 13.0°
3
0%
 06:21     21:10    Daglengte: 14:49 Dinsdag 10 Aug
02:00
14°
1020.4 hPa 17.7 mm 12.3°
3
1%
05:00
12°
1020.4 hPa 17.7 mm 12.0°
3
1%
08:00
14°
1021.3 hPa 17.7 mm 12.6°
3
1%
11:00
20°
1021.6 hPa 17.8 mm 12.9°
4
0%
14:00
23°
1021.0 hPa 17.9 mm 10.9°
3
0%
17:00
22°
1020.2 hPa 17.9 mm 12.5°
2
1%
20:00
19°
1020.1 hPa 17.9 mm 14.4°
2
1%
23:00
16°
1020.8 hPa 17.9 mm 12.3°
2
1%
 06:23     21:08    Daglengte: 14:45 Woensdag 11 Aug
02:00
15°
1020.3 hPa 17.9 mm 11.6°
1
1%
05:00
13°
1019.2 hPa 17.9 mm 11.6°
1
1%
08:00
15°
1019.0 hPa 17.9 mm 12.2°
1
0%
11:00
21°
1018.4 hPa 17.9 mm 13.4°
2
0%
14:00
24°
1017.0 hPa 17.9 mm 13.4°
2
0%
17:00
24°
1015.6 hPa 17.9 mm 14.8°
2
1%
20:00
21°
1015.1 hPa 17.9 mm 14.8°
2
1%
23:00
19°
1014.9 hPa 17.9 mm 13.3°
3
1%
 06:24     21:06    Daglengte: 14:42 Donderdag 12 Aug
02:00
18°
1013.9 hPa 18.0 mm 13.6°
3
1%
05:00
17°
1013.0 hPa 20.2 mm 16.0°
2
1%
08:00
16°
1013.2 hPa 54.9 mm 15.0°
4
1%
11:00
19°
1015.3 hPa 57.4 mm 15.9°
4
1%
14:00
20°
1016.3 hPa 117.4 mm 16.6°
6
1%
20:00
18°
1019.1 hPa 123.4 mm 15.4°
5
0%
 06:26     21:04    Daglengte: 14:38 Vrijdag 13 Aug
02:00
14°
1022.6 hPa 124.1 mm 13.5°
3
0%
08:00
14°
1024.1 hPa 124.1 mm 12.8°
2
0%
14:00
22°
1024.2 hPa 124.1 mm 11.3°
3
0%
20:00
19°
1023.9 hPa 124.1 mm 13.8°
3
0%
 06:27     21:03    Daglengte: 14:36 Zaterdag 14 Aug
02:00
14°
1024.3 hPa 124.1 mm 10.4°
1
0%
08:00
15°
1023.8 hPa 124.1 mm 11.8°
2
0%
14:00
24°
1022.3 hPa 124.1 mm 13.8°
2
0%
20:00
22°
1020.7 hPa 124.1 mm 15.5°
1
0%
 06:29     21:01    Daglengte: 14:32 Zondag 15 Aug
02:00
16°
1020.2 hPa 124.1 mm 13.3°
2
1%
08:00
17°
1018.5 hPa 124.1 mm 13.8°
2
1%
14:00
21°
1014.0 hPa 0.4 mm 12.8°
3
63%
20:00
19°
1013.5 hPa 0.5 mm 13.6°
2
59%
 06:31     20:59    Daglengte: 14:28 Maandag 16 Aug
02:00
15°
1014.0 hPa 0.4 mm 12.3°
2
50%
08:00
15°
1013.7 hPa 0.4 mm 12.6°
3
56%
14:00
21°
1014.5 hPa 0.8 mm 13.3°
4
62%
20:00
19°
1015.0 hPa 0.8 mm 13.3°
3
60%
 06:32     20:57    Daglengte: 14:25 Dinsdag 17 Aug
02:00
15°
1016.0 hPa 0.5 mm 11.8°
2
53%
08:00
15°
1016.2 hPa 0.2 mm 12.6°
3
50%
14:00
22°
1016.3 hPa 0.8 mm 13.6°
4
58%
20:00
20°
1016.1 hPa 0.9 mm 13.8°
2
56%
 06:34     20:55    Daglengte: 14:21 Woensdag 18 Aug
02:00
15°
1016.7 hPa 0.7 mm 12.6°
2
47%
08:00
16°
1016.3 hPa 0.6 mm 13.2°
3
55%
14:00
22°
1016.0 hPa 0.6 mm 14.0°
3
53%
20:00
20°
1015.8 hPa 1.1 mm 14.3°
2
58%
 06:35     20:53    Daglengte: 14:18 Donderdag 19 Aug
02:00
15°
1016.6 hPa 0.8 mm 12.4°
1
51%
08:00
15°
1016.0 hPa 1.2 mm 13.0°
2
44%
14:00
22°
1015.4 hPa 1.5 mm 14.0°
3
54%
20:00
20°
1015.1 hPa 1.1 mm 14.0°
2
52%
 06:37     20:50    Daglengte: 14:13 Vrijdag 20 Aug
02:00
15°
1015.6 hPa 0.8 mm 12.1°
1
45%
08:00
15°
1015.3 hPa 0.7 mm 12.7°
2
47%
14:00
21°
1015.1 hPa 0.6 mm 13.3°
2
63%
  CAPE Lifted Index Hail Supercell Tornado SRH 3km CL BTM PRES CL TOP PRES Swiss DWD icon SMHI TS
 06:14     21:19    Daglengte: 15:05 Vandaag
15:00 150 J/kg 0.9 K 0 % 0 % 0 % 0 m²/s² 0 0 2.64 3
16:00 167 J/kg 0.7 K 0 % 0 % 0 % 0 m²/s² 0 0 3.01 3
17:00 151 J/kg 0.7 K 0 % 0 % 0 % 0 m²/s² 0 0 3.94 3
18:00 159 J/kg 0.7 K 0 % 0 % 0 % 0 m²/s² 0 0 3.88 1
19:00 144 J/kg 0.6 K 0 % 0 % 0 % 0 m²/s² 0 0 3.69 2
20:00 165 J/kg 0.3 K 0 % 0 % 0 % 0 m²/s² 0 0 2.85 2
21:00 167 J/kg 0.0 K 0 % 0 % 0 % 0 m²/s² 0 0 2.13 3
22:00 156 J/kg -0.2 K 0 % 0 % 0 % 0 m²/s² 0 0 1.72 3
23:00 118 J/kg -0.1 K 0 % 0 % 0 % 0 m²/s² 0 0 1.13 3
 06:15     21:17    Daglengte: 15:02 Morgen
00:00 87 J/kg -0.1 K 0 % 0 % 0 % 0 m²/s² 0 0 0.23 80
01:00 19 J/kg 0.5 K 0 % 0 % 0 % 0 m²/s² 0 0 1.49 61
02:00 8 J/kg 0.5 K 0 % 0 % 0 % 0 m²/s² 0 0 0.59 3
03:00 0 J/kg -1.2 K 0 % 0 % 0 % 0 m²/s² 0 0 -0.87 80
04:00 83 J/kg -1.5 K 0 % 0 % 0 % 0 m²/s² 0 0 -1.29 95
05:00 49 J/kg -0.9 K 0 % 0 % 0 % 0 m²/s² 0 0 -0.63 3
06:00 64 J/kg -0.6 K 0 % 0 % 0 % 0 m²/s² 0 0 -0.27 3
07:00 141 J/kg -0.1 K 0 % 0 % 0 % 0 m²/s² 0 0 2.09 80
08:00 56 J/kg 1.1 K 0 % 0 % 0 % 0 m²/s² 0 0 2.72 3
09:00 112 J/kg 0.7 K 0 % 0 % 0 % 0 m²/s² 0 0 2.95 3
10:00 145 J/kg 0.4 K 0 % 0 % 0 % 0 m²/s² 0 0 3.1 3
11:00 118 J/kg 0.5 K 0 % 0 % 0 % 0 m²/s² 0 0 2.99 2
12:00 123 J/kg 0.9 K 0 % 0 % 0 % 0 m²/s² 0 0 3.15 80
13:00 104 J/kg 1.0 K 0 % 0 % 0 % 0 m²/s² 0 0 3.07 80
14:00 176 J/kg 0.5 K 0 % 0 % 0 % 0 m²/s² 0 0 2 2
15:00 377 J/kg -1.0 K 0 % 0 % 0 % 0 m²/s² 0 0 -0.43 2
16:00 507 J/kg -1.5 K 0 % 0 % 0 % 0 m²/s² 0 0 1.11 2
17:00 250 J/kg -0.7 K 0 % 0 % 0 % 0 m²/s² 0 0 2.54 2
18:00 151 J/kg -0.1 K 0 % 0 % 0 % 0 m²/s² 0 0 2.96 2
19:00 135 J/kg 0.1 K 0 % 0 % 0 % 0 m²/s² 0 0 3.34 2
20:00 129 J/kg 0.7 K 0 % 0 % 0 % 0 m²/s² 0 0 4.09 2
21:00 54 J/kg 1.4 K 0 % 0 % 0 % 0 m²/s² 0 0 5.27 2
22:00 0 J/kg 2.3 K 0 % 0 % 0 % 0 m²/s² 0 0 6.47 0
23:00 0 J/kg 3.1 K 0 % 0 % 0 % 0 m²/s² 0 0 7.27 2
 06:17     21:16    Daglengte: 14:59 Zaterdag 07 Aug
00:00 0 J/kg 3.6 K 0 % 0 % 0 % 0 m²/s² 0 0 7.08 3
01:00 0 J/kg 4.2 K 0 % 0 % 0 % 0 m²/s² 0 0 7.32 3
02:00 0 J/kg 4.6 K 0 % 0 % 0 % 0 m²/s² 0 0 7.81 2
03:00 0 J/kg 4.7 K 0 % 0 % 0 % 0 m²/s² 0 0 8.27 2
04:00 0 J/kg 4.5 K 0 % 0 % 0 % 0 m²/s² 0 0 8.07 3
05:00 0 J/kg 4.0 K 0 % 0 % 0 % 0 m²/s² 0 0 7.3 1
06:00 0 J/kg 3.6 K 0 % 0 % 0 % 0 m²/s² 0 0 6.33 0
07:00 0 J/kg 3.7 K 0 % 0 % 0 % 0 m²/s² 0 0 6.28 1
08:00 0 J/kg 3.2 K 0 % 0 % 0 % 0 m²/s² 0 0 5.42 2
09:00 14 J/kg 2.0 K 0 % 0 % 0 % 0 m²/s² 0 0 4.07 2
10:00 33 J/kg 1.5 K 0 % 0 % 0 % 0 m²/s² 0 0 3.57 2
11:00 75 J/kg 1.2 K 0 % 0 % 0 % 0 m²/s² 0 0 2.79 2
12:00 114 J/kg 0.7 K 0 % 0 % 0 % 0 m²/s² 0 0 2.41 2
13:00 129 J/kg 0.5 K 0 % 0 % 0 % 0 m²/s² 0 0 2.51 2
14:00 230 J/kg -0.5 K 0 % 0 % 0 % 0 m²/s² 0 0 1.33 2
15:00 254 J/kg -0.5 K 0 % 0 % 0 % 0 m²/s² 0 0 1.66 3
16:00 265 J/kg -0.5 K 0 % 0 % 0 % 0 m²/s² 0 0 1.87 80
17:00 210 J/kg -0.4 K 0 % 0 % 0 % 0 m²/s² 0 0 1.82 3
18:00 371 J/kg -1.3 K 0 % 0 % 0 % 0 m²/s² 0 0 0.47 80
19:00 313 J/kg -1.2 K 0 % 0 % 0 % 0 m²/s² 0 0 0.18 80
20:00 400 J/kg -1.3 K 0 % 0 % 0 % 0 m²/s² 0 0 -0.34 95
21:00 371 J/kg -1.4 K 0 % 0 % 0 % 0 m²/s² 0 0 -0.32 3
22:00 208 J/kg -0.9 K 0 % 0 % 0 % 0 m²/s² 0 0 -0.57 3
23:00 227 J/kg -1.7 K 0 % 0 % 0 % 0 m²/s² 0 0 -1.01 2
 06:18     21:14    Daglengte: 14:56 Zondag 08 Aug
00:00 322 J/kg -1.8 K 0 % 0 % 0 % 0 m²/s² 0 0 -0.54 2
01:00 142 J/kg -0.6 K 0 % 0 % 0 % 0 m²/s² 0 0 0.66 3
02:00 13 J/kg 0.6 K 0 % 0 % 0 % 0 m²/s² 0 0 0.78 3
03:00 0 J/kg 0.5 K 0 % 0 % 0 % 0 m²/s² 0 0 0.89 61
04:00 0 J/kg 0.8 K 0 % 0 % 0 % 0 m²/s² 0 0 1.43 61
05:00 6 J/kg -0.7 K 0 % 0 % 0 % 0 m²/s² 0 0 -0.07 61
06:00 99 J/kg -0.6 K 0 % 0 % 0 % 0 m²/s² 0 0 0.12 3
07:00 273 J/kg -1.1 K 0 % 0 % 0 % 0 m²/s² 0 0 -0.32 3
08:00 391 J/kg -1.4 K 0 % 0 % 0 % 0 m²/s² 0 0 -0.95 3
09:00 0 J/kg 0.0 K 0 % 0 % 0 % 0 m²/s² 0 0 13.83 3
Temp Baro Wind Neerslag
  EWN Forecast EWN WRFDA DWD ICON FMI HIRLAM MET Norway GFS
 06:14     21:19    Daglengte: 15:05 Vandaag
17:00 21.5° 1006.4 hPa 2.2 m/s 0.8 mm 23.2° 1005.4 hPa 2.4 m/s 0.3 mm 21.2° 1006.5 hPa 2.1 m/s -1.3 mm 22.5° 1006.3 hPa 3.1 m/s 0.0 mm 23.2° 1006.0 hPa 4.1 m/s
20:00 20.8° 1005.3 hPa 2.1 m/s 0.0 mm 22.7° 1004.4 hPa 3.0 m/s 0.3 mm 20.6° 1005.1 hPa 1.9 m/s 0.0 mm 21.2° 1005.4 hPa 1.6 m/s 0.0 mm 19.9° 1005.0 hPa 3.2 m/s
23:00 17.8° 1004.4 hPa 2.8 m/s 0.0 mm 17.9° 1003.4 hPa 3.1 m/s 0.3 mm 17.7° 1004.8 hPa 2.6 m/s 0.0 mm 18.3° 1004.5 hPa 2.6 m/s 0.0 mm 16.1° 1004.1 hPa 3.6 m/s
 06:15     21:17    Daglengte: 15:02 Morgen
02:00 17.3° 1002.6 hPa 3.7 m/s 0.0 mm 17.9° 1002.4 hPa 4.9 m/s 0.4 mm 16.7° 1002.6 hPa 3.4 m/s 0.6 mm 17.5° 1002.4 hPa 3.5 m/s 0.0 mm 16.3° 1002.9 hPa 4.2 m/s
05:00 16.2° 1001.0 hPa 4.0 m/s 2.7 mm 15.9° 1000.1 hPa 3.6 m/s 5.1 mm 16.2° 1001.1 hPa 4.2 m/s 3.2 mm 16.7° 1000.5 hPa 4.1 m/s 0.0 mm 15.9° 1001.5 hPa 5.1 m/s
08:00 16.5° 1001.6 hPa 4.5 m/s 0.9 mm 16.4° 1000.9 hPa 4.8 m/s 7.6 mm 16.4° 1001.9 hPa 4.2 m/s 0.4 mm 16.5° 1000.7 hPa 4.3 m/s 0.0 mm 15.8° 1002.2 hPa 5.2 m/s
11:00 17.7° 1002.3 hPa 6.4 m/s 1.6 mm 19.5° 1001.2 hPa 6.4 m/s 7.8 mm 18.3° 1002.6 hPa 6.3 m/s 0.4 mm 17.4° 1001.4 hPa 6.7 m/s 0.0 mm 17.3° 1003.0 hPa 6.9 m/s
14:00 18.5° 1002.8 hPa 6.8 m/s 2.7 mm 21.6° 1001.4 hPa 6.9 m/s 7.9 mm 20.0° 1003.2 hPa 6.7 m/s 1.0 mm 17.5° 1001.7 hPa 6.8 m/s 0.0 mm 19.6° 1003.4 hPa 8.8 m/s
17:00 19.6° 1003.6 hPa 7.0 m/s 0.0 mm 21.6° 1001.5 hPa 8.5 m/s 12.5 mm 21.3° 1003.9 hPa 6.9 m/s 0.0 mm 18.3° 1003.1 hPa 7.2 m/s 0.0 mm 20.5° 1003.7 hPa 7.4 m/s
20:00 19.0° 1004.2 hPa 4.8 m/s 0.0 mm 20.0° 1002.5 hPa 6.7 m/s 13.8 mm 20.0° 1004.4 hPa 4.2 m/s 0.0 mm 18.2° 1003.9 hPa 6.0 m/s 0.0 mm 19.0° 1004.5 hPa 5.4 m/s
23:00 16.1° 1005.3 hPa 3.4 m/s 0.0 mm 16.0° 1003.7 hPa 4.6 m/s 13.8 mm 15.9° 1005.0 hPa 2.4 m/s 0.0 mm 17.1° 1005.5 hPa 3.5 m/s 0.0 mm 14.6° 1005.5 hPa 3.0 m/s
 06:17     21:16    Daglengte: 14:59 Zaterdag 07 Aug
02:00 15.3° 1005.3 hPa 3.0 m/s 1.1 mm 13.7° 1003.2 hPa 3.9 m/s 13.8 mm 15.5° 1005.1 hPa 2.1 m/s 0.2 mm 14.8° 1005.6 hPa 3.0 m/s 0.0 mm 13.8° 1005.6 hPa 3.4 m/s
05:00 14.4° 1004.4 hPa 3.0 m/s 0.0 mm 11.9° 1002.9 hPa 3.0 m/s 13.8 mm 14.8° 1004.2 hPa 2.3 m/s 0.0 mm 14.4° 1005.1 hPa 3.4 m/s 0.0 mm 13.7° 1005.1 hPa 3.0 m/s
08:00 15.0° 1004.1 hPa 1.9 m/s 0.0 mm 14.9° 1003.0 hPa 4.0 m/s 13.8 mm 15.3° 1004.0 hPa 1.7 m/s 0.0 mm 14.4° 1005.3 hPa 2.9 m/s 0.0 mm 14.6° 1004.5 hPa 2.6 m/s
11:00 18.6° 1003.3 hPa 4.3 m/s 0.0 mm 18.5° 1002.8 hPa 4.5 m/s 13.8 mm 19.3° 1003.3 hPa 3.9 m/s 0.0 mm 17.6° 1003.9 hPa 3.2 m/s
14:00 20.8° 1001.8 hPa 4.6 m/s 1.6 mm 20.6° 1001.5 hPa 4.8 m/s 13.8 mm 21.8° 1002.1 hPa 4.0 m/s 0.0 mm 20.5° 1002.8 hPa 5.7 m/s
17:00 21.1° 1000.9 hPa 3.8 m/s 3.3 mm 22.0° 1000.1 hPa 3.8 m/s 14.2 mm 21.2° 1001.0 hPa 3.7 m/s 0.5 mm 20.7° 1002.4 hPa 5.4 m/s
20:00 18.0° 1001.1 hPa 2.5 m/s 4.5 mm 20.9° 999.7 hPa 2.1 m/s 14.8 mm 17.6° 1001.2 hPa 2.8 m/s 2.3 mm 18.1° 1002.3 hPa 5.4 m/s
23:00 16.5° 1001.8 hPa 3.8 m/s 4.6 mm 17.4° 1000.0 hPa 0.8 m/s 15.4 mm 16.5° 1001.7 hPa 3.8 m/s 0.7 mm 15.3° 1003.0 hPa 5.2 m/s
 06:18     21:14    Daglengte: 14:56 Zondag 08 Aug
02:00 15.2° 1002.5 hPa 5.0 m/s 2.0 mm 15.1° 1000.8 hPa 4.9 m/s 16.4 mm 15.2° 1002.5 hPa 3.8 m/s 0.0 mm 13.9° 1003.7 hPa 5.5 m/s
05:00 14.6° 1002.6 hPa 6.6 m/s 6.8 mm 13.8° 1000.9 hPa 4.2 m/s 16.8 mm 15.2° 1002.3 hPa 6.9 m/s 1.8 mm 13.4° 1004.4 hPa 5.6 m/s
08:00 15.1° 1004.5 hPa 7.2 m/s 0.0 mm 15.2° 1002.2 hPa 6.1 m/s 17.4 mm 15.5° 1004.5 hPa 7.4 m/s 0.0 mm 14.2° 1004.9 hPa 6.5 m/s
11:00 17.1° 1006.9 hPa 7.8 m/s 0.0 mm 17.2° 1006.9 hPa 7.7 m/s 0.0 mm 16.3° 1006.9 hPa 8.0 m/s 10.7 mm
14:00 18.6° 1008.2 hPa 7.7 m/s 2.6 mm 18.5° 1008.1 hPa 7.6 m/s 0.2 mm 19.2° 1008.8 hPa 8.2 m/s 12.2 mm
17:00 21.5° 1010.5 hPa 7.8 m/s 12.8 mm 21.5° 1010.5 hPa 7.8 m/s 12.8 mm
20:00 18.4° 1012.3 hPa 5.8 m/s 12.8 mm 18.4° 1012.3 hPa 5.8 m/s 12.8 mm
23:00 14.5° 1013.9 hPa 3.8 m/s 12.8 mm 14.5° 1013.9 hPa 3.8 m/s 12.8 mm
 06:20     21:12    Daglengte: 14:52 Maandag 09 Aug
02:00 13.5° 1014.4 hPa 4.0 m/s 12.8 mm 13.5° 1014.4 hPa 4.0 m/s 12.8 mm
05:00 14.2° 1014.0 hPa 4.1 m/s 13.0 mm 14.2° 1014.0 hPa 4.1 m/s 13.0 mm
08:00 13.7° 1014.5 hPa 5.9 m/s 13.9 mm 13.7° 1014.5 hPa 5.9 m/s 13.9 mm
11:00 17.4° 1016.0 hPa 6.9 m/s 14.7 mm 17.4° 1016.0 hPa 6.9 m/s 14.7 mm
14:00 18.2° 1017.2 hPa 6.3 m/s 15.9 mm 18.2° 1017.2 hPa 6.3 m/s 15.9 mm
17:00 19.6° 1017.6 hPa 6.1 m/s 16.6 mm 19.6° 1017.6 hPa 6.1 m/s 16.6 mm
20:00 17.8° 1018.4 hPa 4.0 m/s 17.6 mm 17.8° 1018.4 hPa 4.0 m/s 17.6 mm
23:00 14.3° 1019.8 hPa 3.2 m/s 17.7 mm 14.3° 1019.8 hPa 3.2 m/s 17.7 mm
 06:21     21:10    Daglengte: 14:49 Dinsdag 10 Aug
02:00 14.1° 1020.4 hPa 3.5 m/s 17.7 mm 14.1° 1020.4 hPa 3.5 m/s 17.7 mm
05:00 12.5° 1020.4 hPa 3.1 m/s 17.7 mm 12.5° 1020.4 hPa 3.1 m/s 17.7 mm
08:00 13.9° 1021.3 hPa 3.3 m/s 17.7 mm 13.9° 1021.3 hPa 3.3 m/s 17.7 mm
11:00 19.8° 1021.6 hPa 3.5 m/s 17.8 mm 19.8° 1021.6 hPa 3.5 m/s 17.8 mm
14:00 22.8° 1021.0 hPa 2.9 m/s 17.9 mm 22.8° 1021.0 hPa 2.9 m/s 17.9 mm
17:00 22.5° 1020.2 hPa 2.4 m/s 17.9 mm 22.5° 1020.2 hPa 2.4 m/s 17.9 mm
20:00 19.3° 1020.1 hPa 2.2 m/s 17.9 mm 19.3° 1020.1 hPa 2.2 m/s 17.9 mm
23:00 15.5° 1020.8 hPa 1.8 m/s 17.9 mm 15.5° 1020.8 hPa 1.8 m/s 17.9 mm
 06:23     21:08    Daglengte: 14:45 Woensdag 11 Aug
02:00 14.6° 1020.3 hPa 0.8 m/s 17.9 mm 14.6° 1020.3 hPa 0.8 m/s 17.9 mm
05:00 13.4° 1019.2 hPa 1.3 m/s 17.9 mm 13.4° 1019.2 hPa 1.3 m/s 17.9 mm
08:00 15.2° 1019.0 hPa 1.1 m/s 17.9 mm 15.2° 1019.0 hPa 1.1 m/s 17.9 mm
11:00 20.8° 1018.4 hPa 1.8 m/s 17.9 mm 20.8° 1018.4 hPa 1.8 m/s 17.9 mm
14:00 23.7° 1017.0 hPa 2.2 m/s 17.9 mm 23.7° 1017.0 hPa 2.2 m/s 17.9 mm
17:00 24.1° 1015.6 hPa 1.8 m/s 17.9 mm 24.1° 1015.6 hPa 1.8 m/s 17.9 mm
20:00 21.1° 1015.1 hPa 1.7 m/s 17.9 mm 21.1° 1015.1 hPa 1.7 m/s 17.9 mm
23:00 18.6° 1014.9 hPa 2.6 m/s 17.9 mm 18.6° 1014.9 hPa 2.6 m/s 17.9 mm
 06:24     21:06    Daglengte: 14:42 Donderdag 12 Aug
02:00 17.9° 1013.9 hPa 2.8 m/s 18.0 mm 17.9° 1013.9 hPa 2.8 m/s 18.0 mm
05:00 16.5° 1013.0 hPa 2.4 m/s 20.2 mm 16.5° 1013.0 hPa 2.4 m/s 20.2 mm
08:00 15.5° 1013.2 hPa 4.2 m/s 54.9 mm 15.5° 1013.2 hPa 4.2 m/s 54.9 mm
11:00 19.2° 1015.3 hPa 3.8 m/s 57.4 mm 19.2° 1015.3 hPa 3.8 m/s 57.4 mm
14:00 20.2° 1016.3 hPa 5.7 m/s 60.0 mm 20.2° 1016.3 hPa 5.7 m/s 60.0 mm
20:00 18.3° 1019.1 hPa 5.0 m/s 62.0 mm 18.3° 1019.1 hPa 5.0 m/s 62.0 mm
 06:26     21:04    Daglengte: 14:38 Vrijdag 13 Aug
02:00 14.0° 1022.6 hPa 2.6 m/s 62.1 mm 14.0° 1022.6 hPa 2.6 m/s 62.1 mm
08:00 14.5° 1024.1 hPa 2.2 m/s 62.1 mm 14.5° 1024.1 hPa 2.2 m/s 62.1 mm
14:00 22.2° 1024.2 hPa 3.1 m/s 62.1 mm 22.2° 1024.2 hPa 3.1 m/s 62.1 mm
20:00 18.9° 1023.9 hPa 2.8 m/s 62.1 mm 18.9° 1023.9 hPa 2.8 m/s 62.1 mm
 06:27     21:03    Daglengte: 14:36 Zaterdag 14 Aug
02:00 14.0° 1024.3 hPa 1.1 m/s 62.1 mm 14.0° 1024.3 hPa 1.1 m/s 62.1 mm
08:00 15.0° 1023.8 hPa 1.8 m/s 62.1 mm 15.0° 1023.8 hPa 1.8 m/s 62.1 mm
14:00 23.5° 1022.3 hPa 2.0 m/s 62.1 mm 23.5° 1022.3 hPa 2.0 m/s 62.1 mm
20:00 21.6° 1020.7 hPa 1.0 m/s 62.1 mm 21.6° 1020.7 hPa 1.0 m/s 62.1 mm
 06:29     21:01    Daglengte: 14:32 Zondag 15 Aug
02:00 16.0° 1020.2 hPa 1.8 m/s 62.1 mm 16.0° 1020.2 hPa 1.8 m/s 62.1 mm
08:00 16.5° 1018.5 hPa 1.9 m/s 62.1 mm 16.5° 1018.5 hPa 1.9 m/s 62.1 mm
14:00 20.8° 1014.0 hPa 3.4 m/s 0.4 mm
20:00 19.1° 1013.5 hPa 2.1 m/s 0.5 mm
 06:31     20:59    Daglengte: 14:28 Maandag 16 Aug
02:00 15.0° 1014.0 hPa 1.9 m/s 0.4 mm
08:00 15.1° 1013.7 hPa 2.9 m/s 0.4 mm
14:00 21.0° 1014.5 hPa 4.0 m/s 0.8 mm
20:00 19.3° 1015.0 hPa 2.6 m/s 0.8 mm
 06:32     20:57    Daglengte: 14:25 Dinsdag 17 Aug
02:00 14.6° 1016.0 hPa 2.1 m/s 0.5 mm
08:00 15.1° 1016.2 hPa 2.9 m/s 0.2 mm
14:00 21.6° 1016.3 hPa 3.7 m/s 0.8 mm
20:00 19.6° 1016.1 hPa 2.0 m/s 0.9 mm
 06:34     20:55    Daglengte: 14:21 Woensdag 18 Aug
02:00 15.3° 1016.7 hPa 2.0 m/s 0.7 mm
08:00 15.6° 1016.3 hPa 2.5 m/s 0.6 mm
14:00 21.7° 1016.0 hPa 3.4 m/s 0.6 mm
20:00 19.9° 1015.8 hPa 1.9 m/s 1.1 mm
 06:35     20:53    Daglengte: 14:18 Donderdag 19 Aug
02:00 15.2° 1016.6 hPa 1.4 m/s 0.8 mm
08:00 15.4° 1016.0 hPa 1.9 m/s 1.2 mm
14:00 21.8° 1015.4 hPa 2.8 m/s 1.5 mm
20:00 19.6° 1015.1 hPa 1.8 m/s 1.1 mm
 06:37     20:50    Daglengte: 14:13 Vrijdag 20 Aug
02:00 14.9° 1015.6 hPa 1.2 m/s 0.8 mm
08:00 15.0° 1015.3 hPa 1.6 m/s 0.7 mm
14:00 21.0° 1015.1 hPa 2.1 m/s 0.6 mm
FMI Hirlam - 7.5 km EWN WRFDA - 12 km DWD ICON - 7 km GFS - 25 km Basiskaart






























































Updatetijd (Europe/Brussels) Resolutie Lengte Stap
FMI Hirlam 14:00, 20:00, 02:00, 08:00 7.5 km 49h 1h
EWN WRFDA 04:15, 10:15, 16:15, 22:15 12 km 73h 1h
DWD ICON 11:45, 17:45, 23:45, 05:45 7 km 75h 1h
GFS 14:15, 20:15, 02:15, 08:15 25 km 237h 3h
30+ mm
25-30 mm
20-25 mm
15-20 mm
10-15 mm
6-10 mm
4-6 mm
2-4 mm
1-2 mm
0.5-1 mm
0.2-0.5 mm
0.1-0.2 mm
30+ mm
25-30 mm
20-25 mm
15-20 mm
10-15 mm
6-10 mm
4-6 mm
2-4 mm
1-2 mm
0.5-1 mm
0.2-0.5 mm
0.1-0.2 mm
Sneeuwval
Natte sneeuw
Hagel
Vorst
30+ mm
25-30 mm
20-25 mm
15-20 mm
10-15 mm
6-10 mm
4-6 mm
2-4 mm
1-2 mm
0.5-1 mm
0.2-0.5 mm
0.1-0.2 mm
Sneeuwval
Natte sneeuw
Hagel
Vorst
Onweer
50 mm
40 mm
30 mm
26 mm
22 mm
18 mm
14 mm
10 mm
9 mm
8 mm
7 mm
6 mm
5 mm
4.5 mm
4 mm
3.5 mm
3 mm
2.5 mm
2 mm
1.5 mm
1 mm
0.8 mm
0.6 mm
0.4 mm
0.2 mm
0.05 mm
35°
30°
25°
20°
15°
10°
-5°
-10°
-15°
-20°
-25°
-30°
-35°
33> m/s
29 m/s
25 m/s
21 m/s
17 m/s
14 m/s
11 m/s
8 m/s
5 m/s
3 m/s
0 m/s
2600 J/kg
2400 J/kg
2200 J/kg
2000 J/kg
1800 J/kg
1600 J/kg
1400 J/kg
1200 J/kg
1000 J/kg
800 J/kg
600 J/kg
400 J/kg
200 J/kg
70 dBZ
65 dBZ
60 dBZ
55 dBZ
50 dBZ
45 dBZ
40 dBZ
35 dBZ
30 dBZ
25 dBZ
20 dBZ
15 dBZ
10 dBZ
5 dBZ
-1 K
-2 K
-3 K
-4 K
-5 K
-6 K
-7 K
-8 K
-9 K
950 m²/s²
900 m²/s²
850 m²/s²
800 m²/s²
750 m²/s²
700 m²/s²
650 m²/s²
600 m²/s²
550 m²/s²
500 m²/s²
450 m²/s²
400 m²/s²
350 m²/s²
300 m²/s²
250 m²/s²
200 m²/s²
150 m²/s²
100 m²/s²
46 m/s
44 m/s
42 m/s
40 m/s
38 m/s
36 m/s
34 m/s
32 m/s
30 m/s
28 m/s
26 m/s
24 m/s
22 m/s
20 m/s
16 m/s
12 m/s
8 m/s
4 m/s
30 m/s
28 m/s
26 m/s
24 m/s
22 m/s
20 m/s
18 m/s
16 m/s
14 m/s
12 m/s
10 m/s
8 m/s
6 m/s
4 m/s
2 m/s
3.0
2.8
2.6
2.4
2.2
2.0
1.8
1.6
1.4
1.2
1.0
0.8
0.6
0.4
0.2
15
14
13
12
11
10
9
8
7
6
5
4
3
2
1
90%
80%
70%
60%
50%
40%
30%
20%
10%
42
40
38
36
34
32
30
28
26
24
22
20
18
16
14
12
90+ cm
80-90 cm
70-80 cm
60-70 cm
50-60 cm
40-50 cm
30-40 cm
20-30 cm
10-20 cm
1-10 cm
Sneeuwval
Natte sneeuw
Regen
>120 mm
115 mm
110 mm
105 mm
100 mm
95 mm
90 mm
85 mm
80 mm
75 mm
70 mm
65 mm
60 mm
55 mm
50 mm
45 mm
45 mm
40 mm
35 mm
30 mm
25 mm
20 mm
15 mm
10 mm
5 mm
0.1 mm
960 hPa
880 hPa
800 hPa
720 hPa
640 hPa
560 hPa
584 gpdm
568 gpdm
552 gpdm
536 gpdm
520 gpdm
504 gpdm